Location: Buchberg
(46.9333°N, 15.8500°E)
Time: 18:41:32
(UTC+00:00)

CZ-4C R/B - Pass Details

Date: 14 July 2020
Orbit: 409 x 491 km, 97.7° (Epoch: 05 August)

Event Time Altitude Azimuth Distance (km) Brightness Sun altitude
Rises 02:22:16 0° 167° (SSE) 2,380 6.3 -8.0°
Reaches altitude 10° 02:24:16 10° 168° (SSE) 1,508 5.3 -7.8°
Maximum altitude 02:27:29 83° 255° (WSW) 427 2.7 -7.4°
Drops below altitude 10° 02:30:41 10° 345° (NNW) 1,495 5.9 -7.0°
Sets 02:32:40 0° 347° (NNW) 2,358 7.0 -6.7°
